,,,PA_Meas_PMT16A,,PR_Meas_QMR101_102,,RH_Meas_QMH101,,SR_Meas_QMS101,,TA_Meas_QMH101,,GenWind,,GenWind,
date,time,status,PA,status,PR,status,RH,status,SR,status,TA,status,DirAvg,status,SpdAvg,
2009-06-12, 00:00:04,VALID,1001.58,VALID,0,VALID,91.647,VALID,0,VALID,23.0396,VALID,43,VALID,0.652344,
2009-06-12, 00:01:04,VALID,1001.56,VALID,0,VALID,91.6088,VALID,0,VALID,22.9793,VALID,43,VALID,0.708594,
2009-06-12, 00:02:04,VALID,1001.56,VALID,0,VALID,91.7767,VALID,0,VALID,22.9793,VALID,43,VALID,0.538672,
2009-06-12, 00:03:04,VALID,1001.56,VALID,0,VALID,91.7538,VALID,0,VALID,22.9615,VALID,43,VALID,0.678516,
2009-06-12, 00:04:04,VALID,1001.56,VALID,0,VALID,91.6012,VALID,0,VALID,22.9013,VALID,43,VALID,0.724219,
2009-06-12, 00:05:04,VALID,1001.56,VALID,0,VALID,91.586,VALID,0,VALID,22.8818,VALID,43,VALID,0.44375,
2009-06-12, 00:06:04,VALID,1001.55,VALID,0,VALID,91.7309,VALID,0,VALID,22.903,VALID,43,VALID,0.556641,
2009-06-12, 00:07:04,VALID,1001.54,VALID,0,VALID,91.7767,VALID,0,VALID,22.8623,VALID,41,VALID,0.760156,
2009-06-12, 00:08:04,VALID,1001.51,VALID,0,VALID,91.7004,VALID,0,VALID,22.8623,VALID,40,VALID,0.705859,
2009-06-12, 00:09:04,VALID,1001.53,VALID,0,VALID,91.8301,VALID,0,VALID,22.864,VALID,40,VALID,0.771094,
2009-06-12, 00:10:04,VALID,1001.5,VALID,0,VALID,91.708,VALID,0,VALID,22.8623,VALID,40,VALID,0.742188,
2009-06-12, 00:11:04,VALID,1001.48,VALID,0,VALID,91.5402,VALID,0,VALID,22.8445,VALID,40,VALID,0.592188,
2009-06-12, 00:12:04,VALID,1001.46,VALID,0,VALID,91.6012,VALID,0,VALID,22.8232,VALID,39,VALID,0.610937,
2009-06-12, 00:13:04,VALID,1001.46,VALID,0,VALID,91.5554,VALID,0,VALID,22.825,VALID,37,VALID,0.705078,
2009-06-12, 00:14:04,VALID,1001.44,VALID,0,VALID,91.3037,VALID,0,VALID,22.8037,VALID,29,VALID,0.707812,
2009-06-12, 00:15:04,VALID,1001.46,VALID,0,VALID,91.0748,VALID,0,VALID,22.7647,VALID,27,VALID,0.379297,
2009-06-12, 00:16:04,VALID,1001.44,VALID,0,VALID,91.2045,VALID,0,VALID,22.7452,VALID,27,VALID,0.0582031,
2009-06-12, 00:17:04,VALID,1001.43,VALID,0,VALID,91.4334,VALID,0,VALID,22.7452,VALID,27,VALID,0,
2009-06-12, 00:18:04,VALID,1001.42,VALID,0,VALID,91.5478,VALID,0,VALID,22.7469,VALID,27,VALID,0.155859,
2009-06-12, 00:19:04,VALID,1001.4,VALID,0,VALID,91.6699,VALID,0,VALID,22.7257,VALID,27,VALID,0.280859,
2009-06-12, 00:20:04,VALID,1001.37,VALID,0,VALID,91.4868,VALID,0,VALID,22.7274,VALID,27,VALID,0.3375,
2009-06-12, 00:21:04,VALID,1001.39,VALID,0,VALID,91.5326,VALID,0,VALID,22.7079,VALID,27,VALID,0.381641,
2009-06-12, 00:22:04,VALID,1001.37,VALID,0,VALID,91.5478,VALID,0,VALID,22.6672,VALID,27,VALID,0.261719,
2009-06-12, 00:23:04,VALID,1001.35,VALID,0,VALID,91.7767,VALID,0,VALID,22.6884,VALID,27,VALID,0.441797,
2009-06-12, 00:24:04,VALID,1001.33,VALID,0,VALID,91.9293,VALID,0,VALID,22.6884,VALID,27,VALID,0.347656,
2009-06-12, 00:25:04,VALID,1001.35,VALID,0,VALID,91.9903,VALID,0,VALID,22.7079,VALID,27,VALID,0.360547,
2009-06-12, 00:26:04,VALID,1001.34,VALID,0,VALID,91.9598,VALID,0,VALID,22.7079,VALID,27,VALID,0.605469,
2009-06-12, 00:27:04,VALID,1001.32,VALID,0,VALID,91.9827,VALID,0,VALID,22.7469,VALID,27,VALID,0.776172,
2009-06-12, 00:28:04,VALID,1001.35,VALID,0,VALID,91.853,VALID,0,VALID,22.7469,VALID,33,VALID,0.702734,
2009-06-12, 00:29:04,VALID,1001.31,VALID,0,VALID,91.792,VALID,0,VALID,22.7469,VALID,34,VALID,0.69375,
2009-06-12, 00:30:04,VALID,1001.3,VALID,0,VALID,91.7767,VALID,0,VALID,22.7469,VALID,34,VALID,0.784375,
2009-06-12, 00:31:04,VALID,1001.31,VALID,0,VALID,91.7538,VALID,0,VALID,22.7469,VALID,34,VALID,0.685156,
2009-06-12, 00:32:04,VALID,1001.33,VALID,0,VALID,91.6317,VALID,0,VALID,22.7469,VALID,34,VALID,0.714453,
2009-06-12, 00:33:04,VALID,1001.28,VALID,0,VALID,91.4486,VALID,0,VALID,22.6867,VALID,34,VALID,0.725391,
2009-06-12, 00:34:04,VALID,1001.28,VALID,0,VALID,91.6317,VALID,0,VALID,22.6477,VALID,34,VALID,0.744922,
2009-06-12, 00:35:04,VALID,1001.31,VALID,0,VALID,91.6775,VALID,0,VALID,22.6299,VALID,34,VALID,0.331641,
2009-06-12, 00:36:04,VALID,1001.28,VALID,0,VALID,91.8225,VALID,0,VALID,22.6104,VALID,34,VALID,0.332031,
2009-06-12, 00:37:04,VALID,1001.26,VALID,0,VALID,92.0361,VALID,0,VALID,22.6104,VALID,34,VALID,0.522266,
2009-06-12, 00:38:04,VALID,1001.28,VALID,0,VALID,92.0971,VALID,0,VALID,22.5696,VALID,32,VALID,0.648438,
2009-06-12, 00:39:04,VALID,1001.28,VALID,0,VALID,92.1887,VALID,0,VALID,22.5714,VALID,32,VALID,0.851563,
2009-06-12, 00:40:04,VALID,1001.25,VALID,0,VALID,92.3718,VALID,0,VALID,22.5714,VALID,32,VALID,0.979688,
2009-06-12, 00:41:04,VALID,1001.24,VALID,0,VALID,92.3871,VALID,0,VALID,22.5714,VALID,32,VALID,0.911719,
2009-06-12, 00:42:04,VALID,1001.22,VALID,0,VALID,92.2955,VALID,0,VALID,22.5892,VALID,32,VALID,0.938281,
2009-06-12, 00:43:04,VALID,1001.2,VALID,0,VALID,92.4328,VALID,0,VALID,22.5892,VALID,33,VALID,0.954297,
2009-06-12, 00:44:04,VALID,1001.21,VALID,0,VALID,92.5015,VALID,0,VALID,22.6299,VALID,35,VALID,0.914844,
2009-06-12, 00:45:04,VALID,1001.21,VALID,0,VALID,92.6846,VALID,0,VALID,22.6282,VALID,36,VALID,0.821484,
2009-06-12, 00:46:04,VALID,1001.21,VALID,0,VALID,92.6465,VALID,0,VALID,22.6299,VALID,37,VALID,0.880469,
2009-06-12, 00:47:04,VALID,1001.18,VALID,0,VALID,92.6312,VALID,0,VALID,22.6299,VALID,37,VALID,0.744922,
2009-06-12, 00:48:04,VALID,1001.16,VALID,0,VALID,92.5778,VALID,0,VALID,22.6494,VALID,40,VALID,0.546484,
2009-06-12, 00:49:04,VALID,1001.16,VALID,0,VALID,92.5168,VALID,0,VALID,22.6087,VALID,40,VALID,0.428516,
2009-06-12, 00:50:04,VALID,1001.11,VALID,0,VALID,92.5778,VALID,0,VALID,22.6299,VALID,40,VALID,0.448828,
2009-06-12, 00:51:04,VALID,1001.12,VALID,0,VALID,92.6388,VALID,0,VALID,22.6087,VALID,40,VALID,0.359375,
2009-06-12, 00:52:04,VALID,1001.09,VALID,0,VALID,92.6617,VALID,0,VALID,22.6104,VALID,40,VALID,0.217187,
2009-06-12, 00:53:04,VALID,1001.07,VALID,0,VALID,92.6694,VALID,0,VALID,22.6104,VALID,40,VALID,0.135156,
2009-06-12, 00:54:04,VALID,1001.07,VALID,0,VALID,92.7075,VALID,0,VALID,22.5696,VALID,40,VALID,0,
2009-06-12, 00:55:04,VALID,1001.04,VALID,0,VALID,92.822,VALID,0,VALID,22.5696,VALID,40,VALID,0.00859375,
2009-06-12, 00:56:04,VALID,1001.03,VALID,0,VALID,92.9364,VALID,0,VALID,22.5696,VALID,40,VALID,0.134766,
2009-06-12, 00:57:04,VALID,1001.03,VALID,0,VALID,93.0127,VALID,0,VALID,22.5696,VALID,40,VALID,0.233203,
2009-06-12, 00:58:04,VALID,1001.02,VALID,0,VALID,93.0432,VALID,0,VALID,22.6087,VALID,40,VALID,0.203516,
2009-06-12, 00:59:04,VALID,1001.01,VALID,0,VALID,92.9974,VALID,0,VALID,22.5892,VALID,40,VALID,0.243359,
2009-06-12, 01:00:04,VALID,1001.01,VALID,0,VALID,92.9822,VALID,0,VALID,22.6087,VALID,40,VALID,0.263672,
2009-06-12, 01:01:04,VALID,1000.99,VALID,0,VALID,92.9822,VALID,0,VALID,22.6299,VALID,40,VALID,0.485938,
2009-06-12, 01:02:04,VALID,1000.99,VALID,0,VALID,92.9898,VALID,0,VALID,22.6282,VALID,40,VALID,0.453906,
2009-06-12, 01:03:04,VALID,1000.98,VALID,0,VALID,93.1195,VALID,0,VALID,22.6477,VALID,40,VALID,0.360547,
2009-06-12, 01:04:04,VALID,1000.97,VALID,0,VALID,93.1882,VALID,0,VALID,22.6672,VALID,40,VALID,0.228125,
2009-06-12, 01:05:04,VALID,1000.93,VALID,0,VALID,93.1119,VALID,0,VALID,22.7079,VALID,40,VALID,0.223047,
2009-06-12, 01:06:04,VALID,1000.94,VALID,0,VALID,93.089,VALID,0,VALID,22.7062,VALID,40,VALID,0.111719,
2009-06-12, 01:07:04,VALID,1000.91,VALID,0,VALID,92.9517,VALID,0,VALID,22.6867,VALID,40,VALID,0.153516,
2009-06-12, 01:08:04,VALID,1000.89,VALID,0,VALID,92.9669,VALID,0,VALID,22.6867,VALID,40,VALID,0.150391,
2009-06-12, 01:09:04,VALID,1000.86,VALID,0,VALID,92.9593,VALID,0,VALID,22.6867,VALID,40,VALID,0.332031,
2009-06-12, 01:10:04,VALID,1000.82,VALID,0,VALID,92.8448,VALID,0,VALID,22.6672,VALID,40,VALID,0.444531,
2009-06-12, 01:11:04,VALID,1000.84,VALID,0,VALID,92.738,VALID,0,VALID,22.6477,VALID,40,VALID,0.297656,
2009-06-12, 01:12:04,VALID,1000.83,VALID,0,VALID,92.6312,VALID,0,VALID,22.6087,VALID,40,VALID,0.319141,
2009-06-12, 01:13:04,VALID,1000.8,VALID,0,VALID,92.6694,VALID,0,VALID,22.5892,VALID,40,VALID,0.326172,
2009-06-12, 01:14:04,VALID,1000.76,VALID,0,VALID,92.738,VALID,0,VALID,22.5892,VALID,40,VALID,0.3125,
2009-06-12, 01:15:04,VALID,1000.78,VALID,0,VALID,92.6541,VALID,0,VALID,22.5696,VALID,40,VALID,0.171094,
2009-06-12, 01:16:04,VALID,1000.78,VALID,0,VALID,92.6617,VALID,0,VALID,22.5696,VALID,40,VALID,0.209375,
2009-06-12, 01:17:04,VALID,1000.77,VALID,0,VALID,92.6388,VALID,0,VALID,22.5501,VALID,40,VALID,0.25,
2009-06-12, 01:18:04,VALID,1000.79,VALID,0,VALID,92.8372,VALID,0,VALID,22.5501,VALID,40,VALID,0.339453,
2009-06-12, 01:19:04,VALID,1000.78,VALID,0,VALID,92.9135,VALID,0,VALID,22.5501,VALID,40,VALID,0.382813,
2009-06-12, 01:20:04,VALID,1000.78,VALID,0,VALID,92.9974,VALID,0,VALID,22.5696,VALID,40,VALID,0.389062,
2009-06-12, 01:21:04,VALID,1000.79,VALID,0,VALID,92.9517,VALID,0,VALID,22.5892,VALID,40,VALID,0.138672,
2009-06-12, 01:22:04,VALID,1000.78,VALID,0,VALID,92.8983,VALID,0,VALID,22.5892,VALID,40,VALID,0.173438,
2009-06-12, 01:23:04,VALID,1000.76,VALID,0,VALID,92.8067,VALID,0,VALID,22.5696,VALID,40,VALID,0.149219,
2009-06-12, 01:24:04,VALID,1000.74,VALID,0,VALID,92.738,VALID,0,VALID,22.5892,VALID,40,VALID,0.358984,
2009-06-12, 01:25:04,VALID,1000.76,VALID,0,VALID,92.8525,VALID,0,VALID,22.5892,VALID,40,VALID,0.422656,
2009-06-12, 01:26:04,VALID,1000.76,VALID,0,VALID,92.6923,VALID,0,VALID,22.5892,VALID,40,VALID,0.391016,
2009-06-12, 01:27:04,VALID,1000.75,VALID,0,VALID,92.6694,VALID,0,VALID,22.5892,VALID,40,VALID,0.453125,
2009-06-12, 01:28:04,VALID,1000.77,VALID,0,VALID,92.7914,VALID,0,VALID,22.6299,VALID,40,VALID,0.367578,
2009-06-12, 01:29:04,VALID,1000.77,VALID,0,VALID,92.7914,VALID,0,VALID,22.6477,VALID,40,VALID,0.274609,
2009-06-12, 01:30:04,VALID,1000.79,VALID,0,VALID,92.7457,VALID,0,VALID,22.6477,VALID,40,VALID,0.417188,
2009-06-12, 01:31:04,VALID,1000.77,VALID,0,VALID,92.6999,VALID,0,VALID,22.6282,VALID,40,VALID,0.496875,
2009-06-12, 01:32:04,VALID,1000.77,VALID,0,VALID,92.5778,VALID,0,VALID,22.6282,VALID,40,VALID,0.417578,
2009-06-12, 01:33:04,VALID,1000.75,VALID,0,VALID,92.4786,VALID,0.112286,VALID,22.6087,VALID,40,VALID,0.332031,
2009-06-12, 01:34:04,VALID,1000.76,VALID,0,VALID,92.4481,VALID,0,VALID,22.5892,VALID,40,VALID,0.203125,
2009-06-12, 01:35:04,VALID,1000.74,VALID,0,VALID,92.3871,VALID,0,VALID,22.5501,VALID,40,VALID,0.145313,
2009-06-12, 01:36:04,VALID,1000.76,VALID,0,VALID,92.4634,VALID,0,VALID,22.5519,VALID,40,VALID,0.105859,
2009-06-12, 01:37:04,VALID,1000.76,VALID,0,VALID,92.6083,VALID,0,VALID,22.5111,VALID,40,VALID,0.00117188,
2009-06-12, 01:38:04,VALID,1000.77,VALID,0,VALID,92.7151,VALID,0,VALID,22.5111,VALID,40,VALID,0.230078,
2009-06-12, 01:39:04,VALID,1000.77,VALID,0,VALID,92.7151,VALID,0,VALID,22.4916,VALID,40,VALID,0.0667969,
2009-06-12, 01:40:04,VALID,1000.75,VALID,0,VALID,92.6846,VALID,0,VALID,22.4526,VALID,40,VALID,0.0296875,
2009-06-12, 01:41:04,VALID,1000.78,VALID,0,VALID,92.7533,VALID,0,VALID,22.4331,VALID,40,VALID,0.216406,
2009-06-12, 01:42:04,VALID,1000.76,VALID,0,VALID,92.8525,VALID,0,VALID,22.4331,VALID,40,VALID,0.232031,
2009-06-12, 01:43:04,VALID,1000.73,VALID,0,VALID,92.9211,VALID,0,VALID,22.4136,VALID,40,VALID,0.122656,
2009-06-12, 01:44:04,VALID,1000.71,VALID,0,VALID,93.0356,VALID,0,VALID,22.4136,VALID,40,VALID,0.252734,
2009-06-12, 01:45:04,VALID,1000.71,VALID,0,VALID,93.028,VALID,0,VALID,22.3941,VALID,40,VALID,0.0785156,
2009-06-12, 01:46:04,VALID,1000.72,VALID,0,VALID,93.0661,VALID,0,VALID,22.3941,VALID,40,VALID,0.401563,
2009-06-12, 01:47:04,VALID,1000.7,VALID,0,VALID,92.9974,VALID,0,VALID,22.4136,VALID,40,VALID,0.0957031,
2009-06-12, 01:48:04,VALID,1000.69,VALID,0,VALID,92.8372,VALID,0,VALID,22.4331,VALID,40,VALID,0,
2009-06-12, 01:49:04,VALID,1000.67,VALID,0,VALID,92.7914,VALID,0,VALID,22.4526,VALID,40,VALID,0,
2009-06-12, 01:50:04,VALID,1000.68,VALID,0,VALID,92.822,VALID,0,VALID,22.4916,VALID,39,VALID,0,
2009-06-12, 01:51:04,VALID,1000.66,VALID,0,VALID,92.7685,VALID,0,VALID,22.4916,VALID,33,VALID,0,
2009-06-12, 01:52:04,VALID,1000.64,VALID,0,VALID,92.7838,VALID,0,VALID,22.5111,VALID,33,VALID,0,
2009-06-12, 01:53:04,VALID,1000.61,VALID,0,VALID,92.7609,VALID,0,VALID,22.5111,VALID,33,VALID,0,
2009-06-12, 01:54:04,VALID,1000.64,VALID,0,VALID,92.7533,VALID,0.112286,VALID,22.5306,VALID,33,VALID,0,
2009-06-12, 01:55:04,VALID,1000.63,VALID,0,VALID,92.7685,VALID,0,VALID,22.5306,VALID,33,VALID,0,
2009-06-12, 01:56:04,VALID,1000.6,VALID,0,VALID,92.7457,VALID,0,VALID,22.5111,VALID,33,VALID,0,
2009-06-12, 01:57:04,VALID,1000.6,VALID,0,VALID,92.6999,VALID,0,VALID,22.4899,VALID,33,VALID,0,
2009-06-12, 01:58:04,VALID,1000.57,VALID,0,VALID,92.6694,VALID,0,VALID,22.4916,VALID,33,VALID,0,
2009-06-12, 01:59:04,VALID,1000.61,VALID,0,VALID,92.677,VALID,0,VALID,22.4916,VALID,33,VALID,0,
2009-06-12, 02:00:04,VALID,1000.6,VALID,0,VALID,92.5473,VALID,0,VALID,22.4721,VALID,33,VALID,0,
2009-06-12, 02:01:04,VALID,1000.59,VALID,0,VALID,92.6312,VALID,0,VALID,22.4721,VALID,33,VALID,0,
2009-06-12, 02:02:04,VALID,1000.57,VALID,0,VALID,92.5397,VALID,0,VALID,22.4916,VALID,33,VALID,0,
2009-06-12, 02:03:04,VALID,1000.55,VALID,0,VALID,92.4786,VALID,0,VALID,22.4721,VALID,33,VALID,0,
2009-06-12, 02:04:04,VALID,1000.57,VALID,0,VALID,92.5931,VALID,0,VALID,22.4916,VALID,33,VALID,0,
2009-06-12, 02:05:04,VALID,1000.57,VALID,0,VALID,92.6617,VALID,0,VALID,22.4916,VALID,33,VALID,0,
2009-06-12, 02:06:04,VALID,1000.54,VALID,0,VALID,92.6617,VALID,0,VALID,22.5111,VALID,33,VALID,0,
2009-06-12, 02:07:04,VALID,1000.54,VALID,0,VALID,92.6694,VALID,0,VALID,22.5111,VALID,33,VALID,0,
2009-06-12, 02:08:04,VALID,1000.55,VALID,0,VALID,92.7075,VALID,0,VALID,22.5519,VALID,33,VALID,0,
2009-06-12, 02:09:04,VALID,1000.5,VALID,0,VALID,92.6694,VALID,0,VALID,22.5306,VALID,33,VALID,0,
2009-06-12, 02:10:04,VALID,1000.48,VALID,0,VALID,92.677,VALID,0,VALID,22.5306,VALID,33,VALID,0,
2009-06-12, 02:11:04,VALID,1000.47,VALID,0,VALID,92.7685,VALID,0,VALID,22.5306,VALID,33,VALID,0,
2009-06-12, 02:12:04,VALID,1000.44,VALID,0,VALID,92.7075,VALID,0,VALID,22.5306,VALID,33,VALID,0,
2009-06-12, 02:13:04,VALID,1000.44,VALID,0,VALID,92.7228,VALID,0,VALID,22.5306,VALID,33,VALID,0,
2009-06-12, 02:14:04,VALID,1000.44,VALID,0,VALID,92.6083,VALID,0,VALID,22.5306,VALID,33,VALID,0,
2009-06-12, 02:15:05,VALID,1000.43,VALID,0,VALID,92.4634,VALID,0,VALID,22.4916,VALID,33,VALID,0,
2009-06-12, 02:16:05,VALID,1000.42,VALID,0,VALID,92.7457,VALID,0,VALID,22.4916,VALID,33,VALID,0,
2009-06-12, 02:17:05,VALID,1000.44,VALID,0,VALID,92.6999,VALID,0,VALID,22.4721,VALID,33,VALID,0,
2009-06-12, 02:18:05,VALID,1000.44,VALID,0,VALID,92.8067,VALID,0,VALID,22.4738,VALID,33,VALID,0,
2009-06-12, 02:19:05,VALID,1000.42,VALID,0,VALID,92.9135,VALID,0,VALID,22.4526,VALID,33,VALID,0,
2009-06-12, 02:20:05,VALID,1000.43,VALID,0,VALID,92.9822,VALID,0,VALID,22.4526,VALID,33,VALID,0,
2009-06-12, 02:21:05,VALID,1000.4,VALID,0,VALID,92.9517,VALID,0,VALID,22.4526,VALID,33,VALID,0,
2009-06-12, 02:22:05,VALID,1000.4,VALID,0,VALID,92.9517,VALID,0,VALID,22.4526,VALID,33,VALID,0,
2009-06-12, 02:23:05,VALID,1000.38,VALID,0,VALID,92.944,VALID,0,VALID,22.4331,VALID,33,VALID,0,
2009-06-12, 02:24:05,VALID,1000.36,VALID,0,VALID,92.9898,VALID,0,VALID,22.4136,VALID,33,VALID,0,
2009-06-12, 02:25:05,VALID,1000.36,VALID,0,VALID,93.0432,VALID,0,VALID,22.4136,VALID,33,VALID,0,
2009-06-12, 02:26:05,VALID,1000.33,VALID,0,VALID,93.0966,VALID,0,VALID,22.4136,VALID,33,VALID,0,
2009-06-12, 02:27:05,VALID,1000.35,VALID,0,VALID,93.089,VALID,0,VALID,22.4136,VALID,33,VALID,0,
2009-06-12, 02:28:05,VALID,1000.32,VALID,0,VALID,93.0966,VALID,0,VALID,22.4331,VALID,33,VALID,0,
2009-06-12, 02:29:05,VALID,1000.33,VALID,0,VALID,93.1271,VALID,0,VALID,22.4136,VALID,33,VALID,0,
2009-06-12, 02:30:05,VALID,1000.35,VALID,0,VALID,93.1729,VALID,0,VALID,22.4136,VALID,33,VALID,0,
2009-06-12, 02:31:05,VALID,1000.29,VALID,0,VALID,93.2721,VALID,0.112286,VALID,22.4136,VALID,33,VALID,0,
2009-06-12, 02:32:05,VALID,1000.29,VALID,0,VALID,93.2721,VALID,0,VALID,22.4136,VALID,33,VALID,0,
2009-06-12, 02:33:05,VALID,1000.27,VALID,0,VALID,93.2797,VALID,0,VALID,22.4331,VALID,33,VALID,0,
2009-06-12, 02:34:05,VALID,1000.28,VALID,0,VALID,93.1805,VALID,0,VALID,22.4331,VALID,33,VALID,0,
2009-06-12, 02:35:05,VALID,1000.28,VALID,0,VALID,93.0432,VALID,0,VALID,22.4331,VALID,33,VALID,0,
2009-06-12, 02:36:05,VALID,1000.28,VALID,0,VALID,93.0814,VALID,0,VALID,22.4136,VALID,33,VALID,0,
2009-06-12, 02:37:05,VALID,1000.28,VALID,0,VALID,93.2034,VALID,0,VALID,22.4331,VALID,22,VALID,0,
2009-06-12, 02:38:05,VALID,1000.29,VALID,0,VALID,92.9745,VALID,0,VALID,22.3941,VALID,354,VALID,0,
2009-06-12, 02:39:05,VALID,1000.32,VALID,0,VALID,92.9822,VALID,0,VALID,22.3746,VALID,353,VALID,0.808984,
2009-06-12, 02:40:05,VALID,1000.33,VALID,0,VALID,93.1653,VALID,0,VALID,22.3551,VALID,353,VALID,0.780859,
2009-06-12, 02:41:05,VALID,1000.29,VALID,0,VALID,93.2874,VALID,0,VALID,22.3551,VALID,353,VALID,0.699219,
2009-06-12, 02:42:05,VALID,1000.28,VALID,0,VALID,93.2797,VALID,0,VALID,22.3356,VALID,353,VALID,0.647656,
2009-06-12, 02:43:05,VALID,1000.28,VALID,0,VALID,93.3942,VALID,0,VALID,22.3339,VALID,353,VALID,0.60625,
2009-06-12, 02:44:05,VALID,1000.25,VALID,0,VALID,93.2645,VALID,0,VALID,22.3356,VALID,353,VALID,0.460156,
2009-06-12, 02:45:05,VALID,1000.23,VALID,0,VALID,93.3255,VALID,0,VALID,22.3356,VALID,353,VALID,0.444141,
2009-06-12, 02:46:05,VALID,1000.24,VALID,0,VALID,93.234,VALID,0,VALID,22.3161,VALID,353,VALID,0.400391,
2009-06-12, 02:47:05,VALID,1000.22,VALID,0,VALID,93.295,VALID,0,VALID,22.2771,VALID,353,VALID,0.422266,
2009-06-12, 02:48:05,VALID,1000.21,VALID,0,VALID,93.3179,VALID,0,VALID,22.2559,VALID,353,VALID,0.412109,
2009-06-12, 02:49:05,VALID,1000.21,VALID,0,VALID,93.3255,VALID,0,VALID,22.2576,VALID,353,VALID,0.416797,
2009-06-12, 02:50:05,VALID,1000.22,VALID,0,VALID,93.3103,VALID,0,VALID,22.2186,VALID,353,VALID,0.364453,
2009-06-12, 02:51:05,VALID,1000.23,VALID,0,VALID,93.3789,VALID,0,VALID,22.2186,VALID,353,VALID,0.505078,
2009-06-12, 02:52:05,VALID,1000.25,VALID,0,VALID,93.4094,VALID,0,VALID,22.199,VALID,353,VALID,0.548047,
2009-06-12, 02:53:05,VALID,1000.26,VALID,0,VALID,93.4247,VALID,0,VALID,22.1795,VALID,354,VALID,0.605078,
2009-06-12, 02:54:05,VALID,1000.26,VALID,0,VALID,93.4934,VALID,0,VALID,22.1795,VALID,354,VALID,0.482422,
2009-06-12, 02:55:05,VALID,1000.28,VALID,0,VALID,93.4934,VALID,0.112286,VALID,22.16,VALID,354,VALID,0.352734,
2009-06-12, 02:56:05,VALID,1000.3,VALID,0,VALID,93.6612,VALID,0,VALID,22.1795,VALID,354,VALID,0.36875,
2009-06-12, 02:57:05,VALID,1000.31,VALID,0,VALID,93.6994,VALID,0.112286,VALID,22.199,VALID,354,VALID,0.316406,
2009-06-12, 02:58:05,VALID,1000.31,VALID,0,VALID,93.6688,VALID,0,VALID,22.2186,VALID,354,VALID,0,
2009-06-12, 02:59:05,VALID,1000.32,VALID,0,VALID,93.6612,VALID,0,VALID,22.2186,VALID,354,VALID,0.0015625,
2009-06-12, 03:00:05,VALID,1000.3,VALID,0,VALID,93.7223,VALID,0.112286,VALID,22.2186,VALID,354,VALID,0,
2009-06-12, 03:01:05,VALID,1000.31,VALID,0,VALID,93.7299,VALID,0,VALID,22.2381,VALID,354,VALID,0,
2009-06-12, 03:02:05,VALID,1000.28,VALID,0,VALID,93.707,VALID,0,VALID,22.2381,VALID,354,VALID,0,
2009-06-12, 03:03:05,VALID,1000.27,VALID,0,VALID,93.7223,VALID,0,VALID,22.2576,VALID,354,VALID,0,
2009-06-12, 03:04:05,VALID,1000.28,VALID,0,VALID,93.6917,VALID,0,VALID,22.2576,VALID,354,VALID,0,
2009-06-12, 03:05:05,VALID,1000.27,VALID,0,VALID,93.6383,VALID,0,VALID,22.2592,VALID,354,VALID,0,
2009-06-12, 03:06:05,VALID,1000.29,VALID,0,VALID,93.646,VALID,0.112286,VALID,22.2186,VALID,354,VALID,0,
2009-06-12, 03:07:05,VALID,1000.27,VALID,0,VALID,93.646,VALID,0.112286,VALID,22.2186,VALID,354,VALID,0,
2009-06-12, 03:08:05,VALID,1000.28,VALID,0,VALID,93.6917,VALID,0.112286,VALID,22.199,VALID,354,VALID,0,
2009-06-12, 03:09:05,VALID,1000.28,VALID,0,VALID,93.6078,VALID,0,VALID,22.1795,VALID,354,VALID,0,
2009-06-12, 03:10:05,VALID,1000.3,VALID,0,VALID,93.7223,VALID,0,VALID,22.199,VALID,354,VALID,0,
2009-06-12, 03:11:05,VALID,1000.31,VALID,0,VALID,93.852,VALID,0,VALID,22.199,VALID,354,VALID,0.0964844,
2009-06-12, 03:12:05,VALID,1000.34,VALID,0,VALID,93.8901,VALID,0,VALID,22.2592,VALID,354,VALID,0.355469,
2009-06-12, 03:13:05,VALID,1000.32,VALID,0,VALID,93.8825,VALID,0,VALID,22.2186,VALID,354,VALID,0.478906,
2009-06-12, 03:14:05,VALID,1000.35,VALID,0,VALID,93.9588,VALID,0.112286,VALID,22.2381,VALID,353,VALID,0.515234,
2009-06-12, 03:15:05,VALID,1000.37,VALID,0,VALID,93.9054,VALID,0,VALID,22.2381,VALID,353,VALID,0.410156,
2009-06-12, 03:16:05,VALID,1000.37,VALID,0,VALID,93.8291,VALID,0.112286,VALID,22.2186,VALID,353,VALID,0.402734,
2009-06-12, 03:17:05,VALID,1000.37,VALID,0,VALID,93.8443,VALID,0,VALID,22.199,VALID,353,VALID,0.407813,
2009-06-12, 03:18:05,VALID,1000.36,VALID,0,VALID,93.8138,VALID,0,VALID,22.199,VALID,353,VALID,0.477344,
2009-06-12, 03:19:05,VALID,1000.4,VALID,0,VALID,93.8062,VALID,0,VALID,22.16,VALID,353,VALID,0.424219,
2009-06-12, 03:20:05,VALID,1000.38,VALID,0,VALID,93.8214,VALID,0.112286,VALID,22.16,VALID,353,VALID,0.362109,
2009-06-12, 03:21:05,VALID,1000.34,VALID,0,VALID,93.852,VALID,0,VALID,22.1405,VALID,353,VALID,0.28125,
2009-06-12, 03:22:05,VALID,1000.38,VALID,0,VALID,93.8596,VALID,0.112286,VALID,22.121,VALID,353,VALID,0.371484,
2009-06-12, 03:23:05,VALID,1000.35,VALID,0,VALID,93.8748,VALID,0,VALID,22.1015,VALID,353,VALID,0.324219,
2009-06-12, 03:24:05,VALID,1000.35,VALID,0,VALID,93.8367,VALID,0,VALID,22.082,VALID,353,VALID,0.352734,
2009-06-12, 03:25:05,VALID,1000.32,VALID,0,VALID,93.8901,VALID,0,VALID,22.043,VALID,353,VALID,0.205469,
2009-06-12, 03:26:05,VALID,1000.31,VALID,0,VALID,93.9054,VALID,0,VALID,22.0642,VALID,353,VALID,0.257031,
2009-06-12, 03:27:05,VALID,1000.3,VALID,0,VALID,94.058,VALID,0,VALID,22.043,VALID,353,VALID,0.323828,
2009-06-12, 03:28:05,VALID,1000.29,VALID,0,VALID,94.1266,VALID,0.112286,VALID,22.0413,VALID,353,VALID,0.119141,
2009-06-12, 03:29:05,VALID,1000.27,VALID,0,VALID,94.1495,VALID,0,VALID,22.082,VALID,353,VALID,0,
2009-06-12, 03:30:05,VALID,1000.26,VALID,0,VALID,94.1419,VALID,0,VALID,22.082,VALID,353,VALID,0,
2009-06-12, 03:31:05,VALID,1000.24,VALID,0,VALID,94.1419,VALID,0,VALID,22.082,VALID,353,VALID,0.298438,
2009-06-12, 03:32:05,VALID,1000.25,VALID,0,VALID,94.2182,VALID,0,VALID,22.1015,VALID,353,VALID,0.465234,
2009-06-12, 03:33:05,VALID,1000.24,VALID,0,VALID,94.2792,VALID,0.112286,VALID,22.121,VALID,86,VALID,0.690625,
2009-06-12, 03:34:05,VALID,1000.22,VALID,0,VALID,94.2411,VALID,0.112286,VALID,22.16,VALID,87,VALID,0.823047,
2009-06-12, 03:35:05,VALID,1000.2,VALID,0,VALID,94.0808,VALID,0.112286,VALID,22.1795,VALID,87,VALID,1.20156,
2009-06-12, 03:36:05,VALID,1000.19,VALID,0,VALID,93.707,VALID,0.112286,VALID,22.1795,VALID,87,VALID,1.19922,
2009-06-12, 03:37:05,VALID,1000.2,VALID,0,VALID,93.4781,VALID,0,VALID,22.121,VALID,87,VALID,1.10312,
2009-06-12, 03:38:05,VALID,1000.21,VALID,0,VALID,93.6536,VALID,0,VALID,22.1405,VALID,87,VALID,1.04492,
2009-06-12, 03:39:05,VALID,1000.2,VALID,0,VALID,93.4094,VALID,0.112286,VALID,22.121,VALID,87,VALID,0.513281,
2009-06-12, 03:40:05,VALID,1000.2,VALID,0,VALID,93.4247,VALID,0,VALID,22.121,VALID,87,VALID,0.495313,
2009-06-12, 03:41:05,VALID,1000.22,VALID,0,VALID,93.4171,VALID,0,VALID,22.1015,VALID,87,VALID,0.367188,
2009-06-12, 03:42:05,VALID,1000.18,VALID,0,VALID,93.3637,VALID,0.112286,VALID,22.1015,VALID,74,VALID,0.360938,
2009-06-12, 03:43:05,VALID,1000.21,VALID,0,VALID,93.295,VALID,0,VALID,22.0625,VALID,7,VALID,0.617578,
2009-06-12, 03:44:05,VALID,1000.17,VALID,0,VALID,93.2874,VALID,0.112286,VALID,22.0625,VALID,357,VALID,0.720312,
2009-06-12, 03:45:05,VALID,1000.18,VALID,0,VALID,93.2034,VALID,0.112286,VALID,22.0413,VALID,357,VALID,0.440234,
2009-06-12, 03:46:05,VALID,1000.18,VALID,0,VALID,93.1653,VALID,0,VALID,22.0235,VALID,357,VALID,0.505469,
2009-06-12, 03:47:05,VALID,1000.16,VALID,0,VALID,93.3484,VALID,0,VALID,22.004,VALID,357,VALID,0.646875,
2009-06-12, 03:48:05,VALID,1000.19,VALID,0,VALID,93.4552,VALID,0,VALID,22.0252,VALID,357,VALID,0.544141,